[[{"header":{"parameterUnit":"m.s-1","parameterCategory":1,"la1":30.2991,"la2":30.254,"lo1":-89.0895,"lo2":-89.0444,"dy":0.0017,"dx":0.0017,"nx":28,"ny":28,"refTime":"2025-11-09T03:00:00:Z","depth":0,"parameterNumber":2,"parameterNumberName":"U-component_of_WINDS"},"data":[0,0,0,0,0,0,0,0,0,0,0,0,0,0,0,0,0,0,0,0,0,0,0,0,0,0,0,0,0,0,0,0,0,0,0,0,0,0,0,0,0,0,0,0,0,0,0,0,0,0,0,0,0,0,0,0,0,0,2.4044,2.4045,0,2.418,2.4181,2.4183,2.4194,2.4193,2.4191,2.419,2.4331,2.4336,2.4341,0,0,0,0,0,0,0,0,0,0,0,0,0,2.3797,2.3801,2.4044,2.4046,2.4047,2.418,2.4182,2.4183,2.4194,2.4193,2.4191,2.4189,2.4329,2.4335,2.4341,0,0,0,0,0,0,0,0,0,0,0,0,0,2.3916,2.3803,2.4044,2.4069,2.4072,2.4179,2.4182,2.4184,2.4195,2.4192,2.419,2.4188,2.4327,2.4335,2.4342,2.4434,0,0,2.4366,2.4369,0,0,0,0,0,0,0,0,2.3909,2.3925,2.4063,2.4067,2.4071,2.4168,2.4146,2.4268,2.4195,2.4148,2.419,2.4187,2.4279,2.429,2.432,2.4441,2.4447,2.4366,2.4371,2.4374,2.4377,0,0,0,0,0,0,0,2.3901,2.3919,2.4098,2.4065,2.407,2.4074,2.4089,2.4169,2.4224,2.4152,2.4153,2.4169,2.428,2.4313,2.4324,2.4449,2.4366,2.4373,2.4378,2.4381,2.4654,2.4657,0,0,0,0,0,0,2.3887,2.3912,2.4093,2.4102,2.3983,2.408,2.4096,2.4139,2.4223,2.4234,2.4171,2.4169,2.4301,2.4315,2.4329,2.4444,2.4374,2.4382,2.4386,2.4651,2.4655,2.4657,0,0,0,0,0,0,2.3882,2.3903,2.4088,2.4007,2.4031,2.4087,2.4135,2.4143,2.4176,2.4237,2.4248,2.4194,2.43,2.4318,2.4408,2.4449,2.4385,2.4392,2.4648,2.4652,2.4656,2.4673,0,0,0,0,0,0,2.3875,2.3901,2.3936,2.4008,2.4035,2.4164,2.4137,2.4147,2.4189,2.4188,2.4262,2.4272,2.4299,2.4397,2.4416,2.4458,2.4398,2.4645,2.465,2.4655,2.4669,2.4677,2.4684,0,0,0,0,0,2.3866,2.3935,2.3938,2.3959,2.408,2.4166,2.4182,2.4212,2.4192,2.4228,2.4268,2.427,2.4441,2.4406,2.4428,2.4473,2.4643,2.4649,2.4654,2.4666,2.4676,2.4684,0,0,0,0,0,0,2.3867,2.3945,2.3949,2.4043,2.4098,2.4168,2.4214,2.4221,2.4283,2.4279,2.4314,2.4331,2.442,2.4455,2.4415,2.4567,2.454,2.455,2.4541,2.4551,2.4558,2.4548,2.4405,0,0,0,0,0,2.3878,2.3941,2.4006,2.4083,2.4111,2.4158,2.4197,2.4215,2.4273,2.4297,2.4343,2.4401,2.4468,2.4511,2.4576,2.4674,2.4692,2.4716,2.4723,2.4729,2.4738,2.4795,2.4807,2.4677,2.4677,2.4677,0,0,2.3901,2.3952,2.399,2.4085,2.413,2.4195,2.4177,2.4247,2.4297,2.4308,2.4396,2.4432,2.4499,2.4594,2.4638,2.4626,2.4778,2.4737,2.4741,2.4747,2.4802,2.4815,2.4826,2.4681,2.468,2.468,0,0,2.3978,2.4022,2.4092,2.4138,2.4206,2.4237,2.4254,2.4324,2.4348,2.4437,2.4447,2.4507,2.4621,2.4669,2.4708,2.4805,2.481,2.4825,2.4864,2.4919,2.4929,2.4939,2.4975,2.4988,2.4834,2.4834,2.4834,0,2.3999,2.4098,2.4128,2.4198,2.4241,2.4253,2.4325,2.4368,2.4454,2.4484,2.4469,2.4614,2.4659,2.4767,2.479,2.4821,2.4843,2.4817,2.4925,2.4935,2.4944,2.4979,2.4993,2.4836,2.4835,2.4835,2.4835,0,2.4122,2.419,2.4239,2.4322,2.4369,2.444,2.4482,2.4527,2.4541,2.4574,2.4666,2.4721,2.4799,2.4825,2.484,2.4936,2.4926,2.4918,2.4891,2.4958,2.4991,2.5005,2.4838,2.4837,2.4837,2.4836,0,0,2.4202,2.4302,2.4319,2.4358,2.4435,2.4489,2.4561,2.4636,2.4675,2.4734,2.4797,2.4894,2.4887,2.4932,2.4952,2.5,2.5076,2.4986,2.4988,2.5002,2.5187,2.5194,2.5209,2.5079,2.5082,2.5084,2.5182,0,2.4289,2.4418,2.4447,2.4558,2.4623,2.4637,2.47,2.4755,2.4788,2.4849,2.4885,2.4954,2.4939,2.4967,2.5015,2.5056,2.5114,2.5049,2.5139,2.5142,2.5123,2.5226,2.5233,2.5323,2.5195,2.5198,2.5199,0,2.4407,2.447,2.4587,2.4657,2.4685,2.4741,2.4814,2.4871,2.4934,2.4955,2.5006,2.5022,2.5099,2.5068,2.5176,2.5132,2.517,2.5197,2.5201,2.5211,2.5175,2.524,2.5352,2.5366,2.522,2.5218,2.5217,0,2.4457,2.457,2.4655,2.4687,2.4771,2.481,2.4847,2.4908,2.4952,2.5016,2.5045,2.5117,2.5156,2.5212,2.5248,2.5221,2.5354,2.5325,2.5375,2.5374,2.5403,2.5401,2.5523,2.5426,2.5425,2.5425,2.5425,0,2.4551,2.4623,2.4678,2.4731,2.4812,2.4846,2.4926,2.4963,2.5017,2.5078,2.5095,2.5152,2.5194,2.5258,2.5286,2.5373,2.539,2.541,2.5417,2.541,2.5407,2.5436,2.5431,2.5429,2.5428,2.5427,2.5427,0,2.462,2.466,2.4754,2.4825,2.4845,2.4902,2.4964,2.5017,2.505,2.5128,2.5148,2.5202,2.5278,2.5318,2.5413,2.5432,2.553,2.5532,2.5508,2.5511,2.5559,2.5555,2.5706,2.5728,2.5614,2.5615,2.5616,0,2.4678,2.4733,2.4811,2.4853,2.4891,2.4958,2.5003,2.5039,2.5086,2.5163,2.5207,2.5283,2.5347,2.5467,2.5516,2.5589,2.5595,2.5643,2.5606,2.5597,2.5597,2.5594,2.5601,2.5649,2.565,2.5651,2.5652,0,2.4777,2.4795,2.4859,2.4931,2.4985,2.5043,2.5101,2.5135,2.5181,2.5233,2.531,2.5359,2.5457,2.5534,2.5611,2.565,2.566,2.5663,2.5679,2.5672,2.5656,2.5667,2.5527,2.5659,2.5659,2.5658,2.5658,2.5657,2.4843,2.4894,2.4957,2.5029,2.5077,2.5131,2.5184,2.5225,2.529,2.5372,2.539,2.5473,2.5536,2.5641,2.5683,2.5749,2.5739,2.5762,2.5767,2.5773,2.5776,2.5645,2.5763,2.5763,2.5762,2.5762,2.5762,0,2.4945,2.4987,2.5052,2.5133,2.519,2.5193,2.5258,2.5306,2.5378,2.5437,2.5499,2.5589,2.5664,2.5719,2.5796,2.5838,2.5845,2.5857,2.5855,2.5864,2.5779,2.5758,2.5851,2.5851,2.5851,2.5851,2.5851,2.5851,2.5004,2.5091,2.5116,2.5228,2.5269,2.535,2.5387,2.5438,2.5485,2.5585,2.5647,2.5682,2.574,2.5821,2.5891,2.5905,2.5933,2.5946,2.596,2.588,2.587,2.5861,2.5842,2.5951,2.5951,2.6041,2.6042,2.6042]},{"header":{"parameterUnit":"m.s-1","parameterCategory":1,"la1":30.2991,"la2":30.254,"lo1":-89.0895,"lo2":-89.0444,"dy":0.0017,"dx":0.0017,"nx":28,"ny":28,"refTime":"2025-11-09T03:00:00:Z","depth":0,"parameterNumber":3,"parameterNumberName":"V-component_of_WINDS"},"data":[0,0,0,0,0,0,0,0,0,0,0,0,0,0,0,0,0,0,0,0,0,0,0,0,0,0,0,0,0,0,0,0,0,0,0,0,0,0,0,0,0,0,0,0,0,0,0,0,0,0,0,0,0,0,0,0,0,0,1.1947,1.1948,0,1.1969,1.1969,1.1969,1.1953,1.1953,1.1952,1.1951,1.1972,1.1973,1.1974,0,0,0,0,0,0,0,0,0,0,0,0,0,1.1892,1.1893,1.1947,1.1948,1.1948,1.1969,1.1969,1.1969,1.1954,1.1953,1.1952,1.1951,1.1971,1.1973,1.1974,0,0,0,0,0,0,0,0,0,0,0,0,0,1.1915,1.1893,1.1947,1.1943,1.1942,1.1969,1.1969,1.1969,1.1954,1.1953,1.1952,1.1951,1.1971,1.1972,1.1974,1.2006,0,0,1.198,1.198,0,0,0,0,0,0,0,0,1.1913,1.1917,1.1943,1.1943,1.1943,1.1957,1.1957,1.1981,1.1954,1.1949,1.1951,1.195,1.1968,1.197,1.1976,1.2007,1.2008,1.198,1.1981,1.1982,1.1982,0,0,0,0,0,0,0,1.1912,1.1916,1.1956,1.1943,1.1943,1.1939,1.1941,1.1961,1.1964,1.195,1.1949,1.1951,1.1967,1.1974,1.1976,1.2008,1.198,1.1981,1.1982,1.1983,1.2066,1.2067,0,0,0,0,0,0,1.1911,1.1914,1.1955,1.1956,1.1925,1.1941,1.1943,1.1954,1.1964,1.1964,1.1952,1.1951,1.1972,1.1974,1.1977,1.2015,1.1982,1.1983,1.1984,1.2065,1.2066,1.2067,0,0,0,0,0,0,1.191,1.1915,1.1954,1.1935,1.194,1.1943,1.1955,1.1955,1.1961,1.1966,1.1966,1.1959,1.1971,1.1974,1.1999,1.2015,1.1984,1.1986,1.2063,1.2065,1.2067,1.2091,0,0,0,0,0,0,1.1908,1.1914,1.1927,1.1936,1.1941,1.1977,1.1956,1.1956,1.1965,1.1963,1.1972,1.1972,1.197,1.1996,1.2001,1.2017,1.1987,1.2062,1.2064,1.2066,1.2089,1.2093,1.2097,0,0,0,0,0,1.1906,1.1932,1.1927,1.1932,1.1957,1.1978,1.1981,1.1978,1.1966,1.1978,1.1981,1.1972,1.2013,1.1999,1.2004,1.2021,1.2061,1.2064,1.2066,1.2087,1.2092,1.2097,0,0,0,0,0,0,1.1925,1.1933,1.1928,1.1958,1.1967,1.1975,1.199,1.1984,1.1996,1.1994,1.199,1.1992,1.2018,1.2022,1.2006,1.2052,1.2035,1.2038,1.2049,1.2054,1.2059,1.2057,1.1988,0,0,0,0,0,1.1932,1.1949,1.1955,1.1981,1.1986,1.1987,1.1996,1.1994,1.2003,1.2007,1.2011,1.202,1.2035,1.2045,1.2058,1.2089,1.2091,1.2103,1.2107,1.2111,1.2114,1.2131,1.2137,1.2076,1.2076,1.2076,0,0,1.1948,1.1955,1.1965,1.1985,1.1992,1.2009,1.1991,1.201,1.2022,1.2009,1.2033,1.2037,1.2046,1.2074,1.2087,1.2078,1.2131,1.2114,1.2117,1.2118,1.2134,1.214,1.2145,1.2078,1.2077,1.2077,0,0,1.1986,1.1992,1.2015,1.2022,1.2033,1.2034,1.2039,1.2048,1.205,1.2074,1.2065,1.2079,1.2105,1.2112,1.2119,1.216,1.2152,1.2164,1.2187,1.2203,1.2208,1.2212,1.2227,1.2233,1.2167,1.2167,1.2167,0,1.2004,1.203,1.2027,1.2047,1.2056,1.2045,1.2068,1.2075,1.2089,1.2095,1.2086,1.2118,1.2123,1.2153,1.2163,1.2169,1.2175,1.2163,1.2207,1.2212,1.2216,1.223,1.2236,1.2169,1.2169,1.2168,1.2168,0,1.2052,1.207,1.2087,1.2102,1.2113,1.2134,1.2133,1.2144,1.2141,1.2142,1.2167,1.2173,1.2188,1.2195,1.2191,1.2224,1.2219,1.2208,1.2191,1.2223,1.2237,1.2242,1.2171,1.217,1.217,1.217,0,0,1.2103,1.2116,1.2122,1.2129,1.214,1.2154,1.2174,1.219,1.22,1.221,1.2227,1.2248,1.2239,1.2247,1.2244,1.2258,1.2291,1.2246,1.2246,1.2255,1.2328,1.2337,1.2343,1.2285,1.2286,1.2287,1.2328,0,1.2142,1.2178,1.2176,1.221,1.2227,1.2217,1.2235,1.2243,1.2245,1.2259,1.2261,1.2277,1.2263,1.2268,1.2281,1.2284,1.2306,1.2281,1.2301,1.2302,1.23,1.235,1.2359,1.2397,1.2333,1.2334,1.2334,0,1.2192,1.2205,1.2241,1.225,1.2257,1.2273,1.2287,1.2301,1.231,1.2311,1.232,1.2314,1.2334,1.2316,1.2344,1.2327,1.2335,1.2337,1.2339,1.2341,1.2321,1.2355,1.2409,1.2415,1.2342,1.2342,1.2341,0,1.2227,1.2253,1.2278,1.2284,1.2295,1.2307,1.2311,1.232,1.2329,1.2341,1.2347,1.2361,1.2369,1.2379,1.2378,1.2364,1.2406,1.2387,1.2407,1.2407,1.2417,1.2417,1.2475,1.2421,1.2421,1.2421,1.242,0,1.2271,1.2294,1.2294,1.2309,1.2334,1.2331,1.2356,1.2359,1.2367,1.2382,1.2374,1.2389,1.2385,1.2399,1.2398,1.2422,1.2425,1.2426,1.2425,1.2427,1.2427,1.2433,1.2431,1.2422,1.2422,1.2421,1.2421,0,1.2314,1.2315,1.2342,1.235,1.2353,1.2371,1.2378,1.2392,1.2393,1.2413,1.2418,1.2419,1.2436,1.2435,1.2454,1.2453,1.2482,1.2478,1.2479,1.2479,1.2499,1.2498,1.2563,1.2572,1.2512,1.2512,1.2513,0,1.2343,1.236,1.2371,1.2381,1.2387,1.2404,1.2413,1.2411,1.2421,1.2433,1.2446,1.2462,1.2475,1.2502,1.2505,1.2519,1.2516,1.2538,1.2518,1.2519,1.2517,1.2516,1.2518,1.2542,1.2543,1.2543,1.2544,0,1.2394,1.2394,1.2409,1.2424,1.2436,1.2448,1.2458,1.2467,1.2465,1.2477,1.2495,1.2505,1.2524,1.254,1.2554,1.2558,1.2551,1.255,1.2555,1.2558,1.2558,1.2559,1.2491,1.2548,1.2548,1.2548,1.2547,1.2547,1.2432,1.2447,1.2457,1.2474,1.2482,1.2492,1.2506,1.2509,1.2524,1.254,1.2537,1.2557,1.2565,1.2583,1.2589,1.2604,1.2596,1.2603,1.2606,1.2608,1.2611,1.2555,1.2606,1.2606,1.2606,1.2605,1.2605,0,1.2484,1.249,1.2505,1.2521,1.2534,1.2526,1.2537,1.2549,1.2566,1.2575,1.2588,1.2608,1.2624,1.2628,1.2642,1.2654,1.2651,1.2658,1.2657,1.2659,1.2616,1.2611,1.266,1.266,1.266,1.266,1.266,1.266,1.2512,1.2538,1.2539,1.2568,1.2573,1.2593,1.26,1.2609,1.2617,1.264,1.2653,1.2655,1.2662,1.2678,1.2691,1.2692,1.2698,1.2707,1.2706,1.2667,1.2662,1.2656,1.2651,1.2708,1.2708,1.2748,1.2748,1.2748]}]]